Tabellarische Ansicht des 30.10.2017


Die einzelnen Werte des Tages

Uhrzeit Temperatur Luftdruck Luftfeuchte Wind Hi-Wind Taupunkt THW Index Wind Chill Heat Index Solar- strahlung Regen

00:00

6.6 C

1014.4 hpa

86 %

12.9 km/h aus 116

22.5 km/h aus W

4.4 C

4.0 C

4.1 C

6.6 C

0 W/m

0.00 mm

00:05

6.6 C

1014.4 hpa

86 %

11.3 km/h aus 111

22.5 km/h aus W

4.4 C

4.3 C

4.4 C

6.6 C

0 W/m

0.00 mm

00:10

6.6 C

1014.4 hpa

86 %

11.3 km/h aus 114

19.3 km/h aus W

4.4 C

4.3 C

4.4 C

6.6 C

0 W/m

0.00 mm

00:15

6.6 C

1014.5 hpa

86 %

12.9 km/h aus 117

24.1 km/h aus WSW

4.4 C

4.0 C

4.1 C

6.6 C

0 W/m

0.00 mm

00:20

6.7 C

1014.5 hpa

86 %

14.5 km/h aus 117

22.5 km/h aus W

4.5 C

3.7 C

3.8 C

6.6 C

0 W/m

0.00 mm

00:25

6.7 C

1014.5 hpa

86 %

14.5 km/h aus 117

27.4 km/h aus W

4.5 C

3.8 C

3.8 C

6.7 C

0 W/m

0.00 mm

00:30

6.7 C

1014.5 hpa

86 %

14.5 km/h aus 117

29.0 km/h aus W

4.5 C

3.8 C

3.8 C

6.7 C

0 W/m

0.00 mm

00:35

6.8 C

1014.5 hpa

86 %

14.5 km/h aus 114

29.0 km/h aus W

4.6 C

3.8 C

3.9 C

6.7 C

0 W/m

0.00 mm

00:40

6.8 C

1014.5 hpa

85 %

16.1 km/h aus 116

29.0 km/h aus W

4.4 C

3.6 C

3.6 C

6.7 C

0 W/m

0.00 mm

00:45

6.8 C

1014.6 hpa

85 %

17.7 km/h aus 115

27.4 km/h aus W

4.4 C

3.3 C

3.3 C

6.7 C

0 W/m

0.00 mm

00:50

6.8 C

1014.6 hpa

85 %

12.9 km/h aus 117

24.1 km/h aus W

4.4 C

4.2 C

4.2 C

6.7 C

0 W/m

0.00 mm

00:55

6.8 C

1014.6 hpa

85 %

16.1 km/h aus 117

22.5 km/h aus W

4.5 C

3.7 C

3.7 C

6.8 C

0 W/m

0.00 mm

01:00

6.8 C

1015.0 hpa

85 %

12.9 km/h aus 115

24.1 km/h aus W

4.5 C

4.3 C

4.3 C

6.8 C

0 W/m

0.00 mm

01:05

6.8 C

1015.0 hpa

85 %

16.1 km/h aus 115

29.0 km/h aus WSW

4.5 C

3.7 C

3.7 C

6.8 C

0 W/m

0.00 mm

01:10

6.9 C

1015.0 hpa

85 %

17.7 km/h aus 115

29.0 km/h aus WSW

4.5 C

3.4 C

3.5 C

6.8 C

0 W/m

0.00 mm

01:15

6.9 C

1015.0 hpa

85 %

16.1 km/h aus 117

27.4 km/h aus W

4.5 C

3.7 C

3.8 C

6.8 C

0 W/m

0.00 mm

01:20

6.9 C

1015.0 hpa

85 %

16.1 km/h aus 117

29.0 km/h aus WSW

4.5 C

3.7 C

3.8 C

6.8 C

0 W/m

0.00 mm

01:25

6.9 C

1015.0 hpa

85 %

12.9 km/h aus 117

24.1 km/h aus WSW

4.5 C

4.3 C

4.4 C

6.8 C

0 W/m

0.00 mm

01:30

6.8 C

1015.0 hpa

85 %

14.5 km/h aus 117

25.7 km/h aus W

4.5 C

3.9 C

4.0 C

6.8 C

0 W/m

0.00 mm

01:35

6.8 C

1015.0 hpa

85 %

12.9 km/h aus 114

22.5 km/h aus W

4.4 C

4.2 C

4.2 C

6.7 C

0 W/m

0.00 mm

01:40

6.8 C

1015.0 hpa

85 %

11.3 km/h aus 114

19.3 km/h aus WSW

4.4 C

4.5 C

4.6 C

6.7 C

0 W/m

0.00 mm

01:45

6.7 C

1015.4 hpa

85 %

8.0 km/h aus 118

16.1 km/h aus WNW

4.4 C

5.1 C

5.2 C

6.7 C

0 W/m

0.00 mm

01:50

6.7 C

1015.4 hpa

85 %

12.9 km/h aus 116

19.3 km/h aus W

4.4 C

4.1 C

4.2 C

6.7 C

0 W/m

0.00 mm

01:55

6.7 C

1015.4 hpa

85 %

11.3 km/h aus 117

19.3 km/h aus W

4.3 C

4.4 C

4.4 C

6.6 C

0 W/m

0.00 mm

02:00

6.7 C

1015.4 hpa

85 %

9.7 km/h aus 117

19.3 km/h aus W

4.3 C

4.7 C

4.7 C

6.6 C

0 W/m

0.00 mm

02:05

6.7 C

1015.4 hpa

85 %

12.9 km/h aus 115

24.1 km/h aus WSW

4.3 C

4.1 C

4.1 C

6.6 C

0 W/m

0.00 mm

02:10

6.7 C

1015.4 hpa

85 %

12.9 km/h aus 113

20.9 km/h aus W

4.3 C

4.1 C

4.1 C

6.6 C

0 W/m

0.00 mm

02:15

6.7 C

1015.5 hpa

85 %

12.9 km/h aus 117

24.1 km/h aus WSW

4.3 C

4.1 C

4.1 C

6.6 C

0 W/m

0.00 mm

02:20

6.7 C

1015.5 hpa

85 %

11.3 km/h aus 116

30.6 km/h aus WSW

4.3 C

4.4 C

4.4 C

6.6 C

0 W/m

0.00 mm

02:25

6.7 C

1015.5 hpa

85 %

12.9 km/h aus 117

24.1 km/h aus W

4.3 C

4.1 C

4.1 C

6.6 C

0 W/m

0.00 mm

02:30

6.7 C

1015.5 hpa

85 %

16.1 km/h aus 117

25.7 km/h aus W

4.3 C

3.4 C

3.5 C

6.6 C

0 W/m

0.00 mm

02:35

6.7 C

1015.5 hpa

85 %

14.5 km/h aus 116

19.3 km/h aus W

4.3 C

3.7 C

3.8 C

6.6 C

0 W/m

0.00 mm

02:40

6.7 C

1015.5 hpa

86 %

16.1 km/h aus 113

29.0 km/h aus W

4.5 C

3.4 C

3.5 C

6.6 C

0 W/m

0.00 mm

02:45

6.6 C

1015.5 hpa

86 %

14.5 km/h aus 116

27.4 km/h aus WSW

4.4 C

3.7 C

3.7 C

6.6 C

0 W/m

0.00 mm

02:50

6.6 C

1015.5 hpa

86 %

16.1 km/h aus 116

24.1 km/h aus W

4.4 C

3.4 C

3.4 C

6.6 C

0 W/m

0.00 mm

02:55

6.6 C

1015.5 hpa

86 %

14.5 km/h aus 116

20.9 km/h aus WSW

4.4 C

3.7 C

3.7 C

6.6 C

0 W/m

0.00 mm

03:00

6.6 C

1015.5 hpa

86 %

12.9 km/h aus 117

22.5 km/h aus WSW

4.4 C

3.9 C

4.0 C

6.5 C

0 W/m

0.00 mm

03:05

6.6 C

1015.5 hpa

86 %

12.9 km/h aus 116

24.1 km/h aus W

4.4 C

3.9 C

4.0 C

6.5 C

0 W/m

0.00 mm

03:10

6.6 C

1015.5 hpa

86 %

14.5 km/h aus 115

24.1 km/h aus SW

4.4 C

3.6 C

3.7 C

6.5 C

0 W/m

0.00 mm

03:15

6.6 C

1015.5 hpa

86 %

12.9 km/h aus 115

20.9 km/h aus WSW

4.4 C

3.9 C

4.0 C

6.5 C

0 W/m

0.00 mm

03:20

6.5 C

1015.5 hpa

86 %

14.5 km/h aus 117

27.4 km/h aus W

4.3 C

3.5 C

3.6 C

6.4 C

0 W/m

0.00 mm

03:25

6.5 C

1015.5 hpa

86 %

12.9 km/h aus 116

22.5 km/h aus W

4.3 C

3.8 C

3.9 C

6.4 C

0 W/m

0.00 mm

03:30

6.4 C

1015.8 hpa

86 %

11.3 km/h aus 117

17.7 km/h aus W

4.3 C

4.1 C

4.2 C

6.4 C

0 W/m

0.00 mm

03:35

6.4 C

1015.8 hpa

86 %

12.9 km/h aus 116

20.9 km/h aus WSW

4.3 C

3.8 C

3.8 C

6.4 C

0 W/m

0.00 mm

03:40

6.4 C

1015.8 hpa

87 %

9.7 km/h aus 114

19.3 km/h aus W

4.4 C

4.4 C

4.4 C

6.4 C

0 W/m

0.00 mm

03:45

6.3 C

1016.0 hpa

87 %

9.7 km/h aus 115

17.7 km/h aus W

4.3 C

4.3 C

4.3 C

6.3 C

0 W/m

0.00 mm

03:50

6.3 C

1016.0 hpa

87 %

11.3 km/h aus 117

27.4 km/h aus W

4.3 C

4.1 C

4.1 C

6.3 C

0 W/m

0.00 mm

03:55

6.3 C

1016.0 hpa

86 %

11.3 km/h aus 118

19.3 km/h aus W

4.1 C

3.9 C

4.0 C

6.2 C

0 W/m

0.00 mm

04:00

6.3 C

1016.1 hpa

87 %

12.9 km/h aus 116

22.5 km/h aus WSW

4.3 C

3.7 C

3.7 C

6.3 C

0 W/m

0.00 mm

04:05

6.2 C

1016.1 hpa

86 %

9.7 km/h aus 117

19.3 km/h aus WSW

4.1 C

4.1 C

4.2 C

6.2 C

0 W/m

0.00 mm

04:10

6.2 C

1016.1 hpa

87 %

11.3 km/h aus 115

19.3 km/h aus SSW

4.2 C

3.8 C

3.8 C

6.1 C

0 W/m

0.00 mm

04:15

6.2 C

1016.1 hpa

87 %

9.7 km/h aus 113

19.3 km/h aus WSW

4.2 C

4.1 C

4.1 C

6.1 C

0 W/m

0.00 mm

04:20

6.1 C

1016.1 hpa

87 %

9.7 km/h aus 117

17.7 km/h aus SW

4.1 C

4.0 C

4.1 C

6.1 C

0 W/m

0.00 mm

04:25

6.1 C

1016.1 hpa

87 %

11.3 km/h aus 117

20.9 km/h aus W

4.1 C

3.7 C

3.7 C

6.0 C

0 W/m

0.00 mm

04:30

6.1 C

1016.5 hpa

87 %

11.3 km/h aus 116

22.5 km/h aus WSW

4.1 C

3.7 C

3.7 C

6.0 C

0 W/m

0.00 mm

04:35

6.0 C

1016.5 hpa

87 %

11.3 km/h aus 117

19.3 km/h aus WSW

4.0 C

3.6 C

3.6 C

5.9 C

0 W/m

0.00 mm

04:40

6.0 C

1016.5 hpa

87 %

9.7 km/h aus 116

17.7 km/h aus WSW

4.0 C

3.9 C

3.9 C

5.9 C

0 W/m

0.00 mm

04:45

5.9 C

1016.6 hpa

87 %

11.3 km/h aus 115

19.3 km/h aus WNW

3.9 C

3.5 C

3.6 C

5.9 C

0 W/m

0.00 mm

04:50

5.9 C

1016.6 hpa

87 %

11.3 km/h aus 115

22.5 km/h aus W

3.9 C

3.5 C

3.6 C

5.9 C

0 W/m

0.00 mm

04:55

5.9 C

1016.6 hpa

87 %

11.3 km/h aus 117

20.9 km/h aus W

3.9 C

3.4 C

3.5 C

5.8 C

0 W/m

0.00 mm

05:00

5.9 C

1016.7 hpa

88 %

9.7 km/h aus 118

19.3 km/h aus WSW

4.1 C

3.7 C

3.8 C

5.8 C

0 W/m

0.00 mm

05:05

5.9 C

1016.7 hpa

88 %

9.7 km/h aus 117

19.3 km/h aus WSW

4.1 C

3.7 C

3.8 C

5.8 C

0 W/m

0.00 mm

05:10

5.8 C

1016.7 hpa

87 %

8.0 km/h aus 117

17.7 km/h aus WSW

3.8 C

4.1 C

4.1 C

5.8 C

0 W/m

0.00 mm

05:15

5.8 C

1016.8 hpa

87 %

9.7 km/h aus 115

17.7 km/h aus WNW

3.8 C

3.7 C

3.7 C

5.8 C

0 W/m

0.00 mm

05:20

5.8 C

1016.8 hpa

87 %

11.3 km/h aus 113

24.1 km/h aus W

3.8 C

3.3 C

3.3 C

5.7 C

0 W/m

0.00 mm

05:25

5.8 C

1016.8 hpa

88 %

9.7 km/h aus 117

17.7 km/h aus W

3.9 C

3.6 C

3.7 C

5.7 C

0 W/m

0.00 mm

05:30

5.8 C

1017.0 hpa

88 %

11.3 km/h aus 117

17.7 km/h aus W

3.9 C

3.3 C

3.3 C

5.7 C

0 W/m

0.00 mm

05:35

5.8 C

1017.0 hpa

88 %

11.3 km/h aus 117

20.9 km/h aus W

3.9 C

3.3 C

3.3 C

5.7 C

0 W/m

0.00 mm

05:40

5.8 C

1017.0 hpa

88 %

11.3 km/h aus 116

20.9 km/h aus WSW

4.0 C

3.4 C

3.4 C

5.8 C

0 W/m

0.00 mm

05:45

5.8 C

1017.1 hpa

88 %

11.3 km/h aus 116

20.9 km/h aus W

4.0 C

3.4 C

3.4 C

5.8 C

0 W/m

0.00 mm

05:50

5.8 C

1017.1 hpa

88 %

12.9 km/h aus 114

22.5 km/h aus WSW

4.0 C

3.1 C

3.1 C

5.8 C

0 W/m

0.00 mm

05:55

5.9 C

1017.1 hpa

88 %

11.3 km/h aus 114

20.9 km/h aus WSW

4.1 C

3.4 C

3.5 C

5.8 C

0 W/m

0.00 mm

06:00

5.9 C

1017.1 hpa

88 %

11.3 km/h aus 116

19.3 km/h aus W

4.1 C

3.4 C

3.5 C

5.8 C

0 W/m

0.00 mm

06:05

5.9 C

1017.1 hpa

88 %

12.9 km/h aus 117

20.9 km/h aus WSW

4.1 C

3.1 C

3.2 C

5.8 C

0 W/m

0.00 mm

06:10

5.9 C

1017.1 hpa

88 %

12.9 km/h aus 117

22.5 km/h aus W

4.1 C

3.1 C

3.2 C

5.8 C

0 W/m

0.00 mm

06:15

5.8 C

1017.4 hpa

88 %

8.0 km/h aus 117

16.1 km/h aus W

4.0 C

4.1 C

4.1 C

5.8 C

0 W/m

0.00 mm

06:20

5.8 C

1017.4 hpa

88 %

9.7 km/h aus 114

19.3 km/h aus WSW

4.0 C

3.7 C

3.7 C

5.8 C

0 W/m

0.00 mm

06:25

5.8 C

1017.4 hpa

88 %

9.7 km/h aus 113

20.9 km/h aus W

3.9 C

3.6 C

3.7 C

5.7 C

0 W/m

0.00 mm

06:30

5.7 C

1017.6 hpa

88 %

9.7 km/h aus 117

17.7 km/h aus W

3.9 C

3.6 C

3.6 C

5.7 C

0 W/m

0.00 mm

06:35

5.7 C

1017.6 hpa

88 %

11.3 km/h aus 117

17.7 km/h aus W

3.9 C

3.2 C

3.3 C

5.7 C

0 W/m

0.00 mm

06:40

5.7 C

1017.6 hpa

88 %

11.3 km/h aus 116

19.3 km/h aus W

3.8 C

3.2 C

3.2 C

5.6 C

0 W/m

0.00 mm

06:45

5.6 C

1017.6 hpa

88 %

9.7 km/h aus 117

16.1 km/h aus WSW

3.8 C

3.4 C

3.4 C

5.6 C

0 W/m

0.00 mm

06:50

5.6 C

1017.6 hpa

88 %

11.3 km/h aus 116

24.1 km/h aus WSW

3.8 C

3.1 C

3.1 C

5.6 C

0 W/m

0.00 mm

06:55

5.6 C

1017.6 hpa

88 %

11.3 km/h aus 114

17.7 km/h aus W

3.7 C

3.0 C

3.1 C

5.5 C

0 W/m

0.00 mm

07:00

5.6 C

1018.0 hpa

88 %

9.7 km/h aus 116

19.3 km/h aus W

3.8 C

3.4 C

3.4 C

5.6 C

0 W/m

0.00 mm

07:05

5.7 C

1018.0 hpa

88 %

9.7 km/h aus 117

17.7 km/h aus W

3.8 C

3.4 C

3.5 C

5.6 C

0 W/m

0.00 mm

07:10

5.7 C

1018.0 hpa

89 %

8.0 km/h aus 118

14.5 km/h aus W

4.0 C

4.0 C

4.0 C

5.7 C

3 W/m

0.00 mm

07:15

5.7 C

1018.1 hpa

89 %

8.0 km/h aus 117

14.5 km/h aus W

4.0 C

4.0 C

4.0 C

5.7 C

6 W/m

0.00 mm

07:20

5.7 C

1018.1 hpa

89 %

8.0 km/h aus 117

12.9 km/h aus W

4.0 C

4.0 C

4.0 C

5.7 C

9 W/m

0.00 mm

07:25

5.7 C

1018.1 hpa

88 %

9.7 km/h aus 114

17.7 km/h aus SSW

3.8 C

3.4 C

3.5 C

5.6 C

11 W/m

0.00 mm

07:30

5.6 C

1018.3 hpa

88 %

9.7 km/h aus 114

19.3 km/h aus WSW

3.8 C

3.4 C

3.4 C

5.6 C

12 W/m

0.00 mm

07:35

5.6 C

1018.3 hpa

88 %

9.7 km/h aus 117

17.7 km/h aus SW

3.8 C

3.4 C

3.4 C

5.6 C

17 W/m

0.00 mm

07:40

5.6 C

1018.3 hpa

88 %

8.0 km/h aus 117

16.1 km/h aus W

3.7 C

3.7 C

3.8 C

5.5 C

42 W/m

0.00 mm

07:45

5.6 C

1018.7 hpa

89 %

11.3 km/h aus 117

19.3 km/h aus W

3.9 C

3.1 C

3.1 C

5.6 C

64 W/m

0.00 mm

07:50

5.8 C

1018.7 hpa

89 %

11.3 km/h aus 117

19.3 km/h aus WSW

4.1 C

3.3 C

3.3 C

5.8 C

72 W/m

0.00 mm

07:55

5.9 C

1018.7 hpa

89 %

8.0 km/h aus 116

20.9 km/h aus WSW

4.2 C

4.2 C

4.2 C

5.9 C

60 W/m

0.00 mm

08:00

5.9 C

1018.7 hpa

89 %

11.3 km/h aus 114

20.9 km/h aus WSW

4.3 C

3.6 C

3.6 C

5.9 C

57 W/m

0.00 mm

08:05

6.0 C

1018.7 hpa

89 %

9.7 km/h aus 115

19.3 km/h aus W

4.3 C

3.9 C

3.9 C

6.0 C

45 W/m

0.00 mm

08:10

6.1 C

1018.7 hpa

89 %

12.9 km/h aus 117

20.9 km/h aus W

4.4 C

3.4 C

3.4 C

6.1 C

54 W/m

0.00 mm

08:15

6.1 C

1019.1 hpa

89 %

9.7 km/h aus 118

19.3 km/h aus W

4.4 C

4.0 C

4.0 C

6.1 C

50 W/m

0.00 mm

08:20

6.1 C

1019.1 hpa

88 %

8.0 km/h aus 117

14.5 km/h aus W

4.2 C

4.4 C

4.4 C

6.1 C

49 W/m

0.00 mm

08:25

6.1 C

1019.1 hpa

89 %

9.7 km/h aus 116

19.3 km/h aus WSW

4.4 C

4.0 C

4.0 C

6.1 C

63 W/m

0.00 mm

08:30

6.1 C

1019.2 hpa

88 %

12.9 km/h aus 114

19.3 km/h aus WSW

4.2 C

3.4 C

3.4 C

6.1 C

69 W/m

0.00 mm

08:35

6.3 C

1019.2 hpa

88 %

9.7 km/h aus 116

17.7 km/h aus WSW

4.4 C

4.3 C

4.3 C

6.3 C

158 W/m

0.00 mm

08:40

6.7 C

1019.2 hpa

87 %

11.3 km/h aus 117

19.3 km/h aus WSW

4.7 C

4.4 C

4.4 C

6.7 C

178 W/m

0.00 mm

08:45

6.8 C

1019.3 hpa

86 %

9.7 km/h aus 117

24.1 km/h aus WSW

4.6 C

4.8 C

4.8 C

6.7 C

123 W/m

0.00 mm

08:50

6.7 C

1019.3 hpa

86 %

11.3 km/h aus 117

20.9 km/h aus WSW

4.5 C

4.4 C

4.5 C

6.7 C

77 W/m

0.00 mm

08:55

6.7 C

1019.3 hpa

86 %

12.9 km/h aus 115

19.3 km/h aus W

4.5 C

4.1 C

4.1 C

6.6 C

162 W/m

0.00 mm

09:00

6.9 C

1019.3 hpa

86 %

11.3 km/h aus 114

19.3 km/h aus WSW

4.8 C

4.7 C

4.8 C

6.9 C

216 W/m

0.00 mm

09:05

7.1 C

1019.3 hpa

85 %

11.3 km/h aus 116

19.3 km/h aus W

4.7 C

4.8 C

4.9 C

7.0 C

187 W/m

0.00 mm

09:10

7.2 C

1019.3 hpa

85 %

9.7 km/h aus 117

20.9 km/h aus WSW

4.8 C

5.3 C

5.3 C

7.1 C

197 W/m

0.00 mm

09:15

7.3 C

1019.6 hpa

84 %

9.7 km/h aus 117

19.3 km/h aus WSW

4.8 C

5.4 C

5.4 C

7.2 C

197 W/m

0.00 mm

09:20

7.2 C

1019.6 hpa

84 %

11.3 km/h aus 118

19.3 km/h aus W

4.7 C

5.1 C

5.1 C

7.2 C

85 W/m

0.00 mm

09:25

7.3 C

1019.6 hpa

84 %

12.9 km/h aus 115

25.7 km/h aus W

4.8 C

4.8 C

4.8 C

7.2 C

230 W/m

0.00 mm

09:30

7.6 C

1019.7 hpa

83 %

9.7 km/h aus 114

19.3 km/h aus WSW

4.9 C

5.8 C

5.8 C

7.6 C

241 W/m

0.00 mm

09:35

7.8 C

1019.7 hpa

82 %

11.3 km/h aus 117

19.3 km/h aus WSW

4.9 C

5.8 C

5.8 C

7.8 C

253 W/m

0.00 mm

09:40

8.1 C

1019.7 hpa

82 %

11.3 km/h aus 117

22.5 km/h aus W

5.2 C

6.1 C

6.1 C

8.0 C

272 W/m

0.00 mm

09:45

8.3 C

1019.9 hpa

81 %

12.9 km/h aus 117

19.3 km/h aus WSW

5.2 C

5.9 C

6.0 C

8.2 C

320 W/m

0.00 mm

09:50

8.6 C

1019.9 hpa

80 %

9.7 km/h aus 115

20.9 km/h aus SW

5.4 C

7.0 C

7.1 C

8.6 C

356 W/m

0.00 mm

09:55

8.7 C

1019.9 hpa

79 %

11.3 km/h aus 115

25.7 km/h aus W

5.2 C

6.7 C

6.8 C

8.6 C

261 W/m

0.00 mm

10:00

8.5 C

1020.1 hpa

79 %

17.7 km/h aus 115

25.7 km/h aus W

5.1 C

5.3 C

5.4 C

8.4 C

203 W/m

0.00 mm

10:05

8.4 C

1020.1 hpa

80 %

9.7 km/h aus 117

24.1 km/h aus WSW

5.1 C

6.7 C

6.8 C

8.3 C

164 W/m

0.00 mm

10:10

8.4 C

1020.1 hpa

80 %

9.7 km/h aus 117

17.7 km/h aus WSW

5.1 C

6.7 C

6.8 C

8.3 C

161 W/m

0.00 mm

10:15

8.4 C

1020.2 hpa

81 %

11.3 km/h aus 116

19.3 km/h aus SW

5.4 C

6.5 C

6.6 C

8.4 C

163 W/m

0.00 mm

10:20

8.3 C

1020.2 hpa

80 %

11.3 km/h aus 114

20.9 km/h aus W

5.1 C

6.3 C

6.4 C

8.2 C

103 W/m

0.00 mm

10:25

8.3 C

1020.2 hpa

81 %

11.3 km/h aus 116

19.3 km/h aus WSW

5.2 C

6.3 C

6.4 C

8.2 C

147 W/m

0.00 mm

10:30

8.7 C

1020.3 hpa

79 %

12.9 km/h aus 116

20.9 km/h aus W

5.2 C

6.3 C

6.4 C

8.6 C

330 W/m

0.00 mm

10:35

8.8 C

1020.3 hpa

80 %

12.9 km/h aus 116

22.5 km/h aus W

5.6 C

6.6 C

6.7 C

8.8 C

223 W/m

0.00 mm

10:40

8.9 C

1020.3 hpa

78 %

11.3 km/h aus 117

20.9 km/h aus W

5.3 C

7.1 C

7.2 C

8.8 C

299 W/m

0.00 mm

10:45

9.3 C

1020.3 hpa

77 %

11.3 km/h aus 114

22.5 km/h aus WNW

5.5 C

7.4 C

7.6 C

9.2 C

348 W/m

0.00 mm

10:50

9.5 C

1020.3 hpa

76 %

12.9 km/h aus 113

20.9 km/h aus WNW

5.5 C

7.3 C

7.4 C

9.3 C

393 W/m

0.00 mm

10:55

9.9 C

1020.3 hpa

75 %

12.9 km/h aus 117

20.9 km/h aus W

5.7 C

7.9 C

8.0 C

9.8 C

491 W/m

0.00 mm

11:00

9.8 C

1020.4 hpa

75 %

11.3 km/h aus 117

19.3 km/h aus WSW

5.6 C

8.1 C

8.2 C

9.7 C

201 W/m

0.00 mm

11:05

9.5 C

1020.4 hpa

76 %

11.3 km/h aus 117

22.5 km/h aus W

5.5 C

7.7 C

7.8 C

9.3 C

171 W/m

0.25 mm

11:10

9.3 C

1020.4 hpa

75 %

14.5 km/h aus 115

25.7 km/h aus W

5.1 C

6.8 C

6.9 C

9.2 C

158 W/m

0.00 mm

11:15

9.3 C

1020.5 hpa

76 %

11.3 km/h aus 115

19.3 km/h aus NW

5.3 C

7.4 C

7.6 C

9.1 C

139 W/m

0.00 mm

11:20

9.8 C

1020.5 hpa

76 %

6.4 km/h aus 117

16.1 km/h aus WSW

5.7 C

9.0 C

9.1 C

9.7 C

347 W/m

0.00 mm

11:25

10.2 C

1020.5 hpa

74 %

6.4 km/h aus 118

12.9 km/h aus W

5.7 C

9.4 C

9.6 C

10.0 C

378 W/m

0.00 mm

11:30

10.2 C

1020.5 hpa

72 %

8.0 km/h aus 116

19.3 km/h aus WNW

5.3 C

9.0 C

9.2 C

9.9 C

378 W/m

0.00 mm

11:35

10.2 C

1020.5 hpa

72 %

12.9 km/h aus 116

24.1 km/h aus W

5.3 C

8.1 C

8.3 C

9.9 C

377 W/m

0.00 mm

11:40

10.1 C

1020.5 hpa

72 %

14.5 km/h aus 114

22.5 km/h aus WNW

5.2 C

7.6 C

7.8 C

9.9 C

389 W/m

0.00 mm

11:45

9.9 C

1020.7 hpa

71 %

14.5 km/h aus 116

20.9 km/h aus WNW

4.9 C

7.4 C

7.7 C

9.7 C

385 W/m

0.00 mm

11:50

10.1 C

1020.7 hpa

71 %

14.5 km/h aus 117

30.6 km/h aus WNW

5.0 C

7.6 C

7.8 C

9.8 C

393 W/m

0.00 mm

11:55

10.2 C

1020.7 hpa

70 %

12.9 km/h aus 117

24.1 km/h aus WNW

5.0 C

8.1 C

8.3 C

10.0 C

392 W/m

0.00 mm

12:00

10.3 C

1020.6 hpa

70 %

11.3 km/h aus 116

19.3 km/h aus NW

5.1 C

8.6 C

8.8 C

10.1 C

400 W/m

0.00 mm

12:05

10.0 C

1020.6 hpa

70 %

12.9 km/h aus 114

24.1 km/h aus NW

4.8 C

7.8 C

8.1 C

9.8 C

100 W/m

0.00 mm

12:10

9.7 C

1020.6 hpa

72 %

14.5 km/h aus 117

22.5 km/h aus WNW

4.9 C

7.2 C

7.4 C

9.6 C

111 W/m

0.00 mm

12:15

10.3 C

1020.6 hpa

71 %

12.9 km/h aus 117

22.5 km/h aus WNW

5.3 C

8.2 C

8.4 C

10.1 C

414 W/m

0.00 mm

12:20

10.1 C

1020.6 hpa

69 %

12.9 km/h aus 117

19.3 km/h aus W

4.6 C

7.8 C

8.1 C

9.8 C

109 W/m

0.00 mm

12:25

10.0 C

1020.6 hpa

71 %

9.7 km/h aus 116

19.3 km/h aus W

5.0 C

8.5 C

8.7 C

9.8 C

296 W/m

0.00 mm

12:30

10.4 C

1020.6 hpa

70 %

11.3 km/h aus 115

20.9 km/h aus WNW

5.2 C

8.7 C

9.0 C

10.2 C

415 W/m

0.00 mm

12:35

10.7 C

1020.6 hpa

68 %

12.9 km/h aus 117

22.5 km/h aus W

5.0 C

8.5 C

8.8 C

10.3 C

262 W/m

0.00 mm

12:40

10.4 C

1020.6 hpa

70 %

12.9 km/h aus 117

24.1 km/h aus W

5.2 C

8.3 C

8.6 C

10.2 C

123 W/m

0.00 mm

12:45

10.2 C

1020.7 hpa

70 %

16.1 km/h aus 117

22.5 km/h aus WNW

4.9 C

7.4 C

7.6 C

9.9 C

154 W/m

0.00 mm

12:50

10.3 C

1020.7 hpa

70 %

14.5 km/h aus 116

20.9 km/h aus WNW

5.1 C

7.8 C

8.1 C

10.1 C

155 W/m

0.00 mm

12:55

10.2 C

1020.7 hpa

70 %

11.3 km/h aus 114

22.5 km/h aus WSW

5.0 C

8.5 C

8.7 C

10.0 C

162 W/m

0.00 mm

13:00

10.1 C

1020.7 hpa

69 %

12.9 km/h aus 116

22.5 km/h aus W

4.7 C

7.9 C

8.2 C

9.8 C

142 W/m

0.00 mm

13:05

10.2 C

1020.7 hpa

71 %

11.3 km/h aus 116

22.5 km/h aus W

5.1 C

8.4 C

8.7 C

9.9 C

209 W/m

0.00 mm

13:10

10.5 C

1020.7 hpa

72 %

8.0 km/h aus 117

14.5 km/h aus WSW

5.7 C

9.4 C

9.6 C

10.3 C

253 W/m

0.00 mm

13:15

10.4 C

1020.8 hpa

70 %

12.9 km/h aus 116

19.3 km/h aus W

5.2 C

8.3 C

8.6 C

10.2 C

74 W/m

0.00 mm

13:20

10.3 C

1020.8 hpa

69 %

12.9 km/h aus 114

25.7 km/h aus WNW

4.9 C

8.2 C

8.4 C

10.1 C

48 W/m

0.00 mm

13:25

10.2 C

1020.8 hpa

71 %

14.5 km/h aus 117

24.1 km/h aus W

5.2 C

7.8 C

8.0 C

10.0 C

49 W/m

0.00 mm

13:30

10.1 C

1020.8 hpa

73 %

8.0 km/h aus 117

17.7 km/h aus WSW

5.4 C

8.9 C

9.1 C

9.9 C

48 W/m

0.00 mm

13:35

9.9 C

1020.8 hpa

74 %

8.0 km/h aus 118

27.4 km/h aus NW

5.5 C

8.8 C

8.9 C

9.8 C

54 W/m

0.00 mm

13:40

9.7 C

1020.8 hpa

74 %

9.7 km/h aus 117

22.5 km/h aus WNW

5.3 C

8.2 C

8.4 C

9.6 C

51 W/m

0.00 mm

13:45

9.7 C

1021.1 hpa

77 %

9.7 km/h aus 114

20.9 km/h aus WNW

5.8 C

8.2 C

8.3 C

9.6 C

64 W/m

0.00 mm

13:50

9.3 C

1021.1 hpa

79 %

6.4 km/h aus 116

9.7 km/h aus NW

5.8 C

8.5 C

8.6 C

9.2 C

157 W/m

0.00 mm

13:55

9.4 C

1021.1 hpa

81 %

3.2 km/h aus 116

8.0 km/h aus WNW

6.3 C

9.4 C

9.4 C

9.4 C

126 W/m

0.00 mm

14:00

9.9 C

1020.9 hpa

78 %

11.3 km/h aus 117

22.5 km/h aus WNW

6.3 C

8.3 C

8.4 C

9.9 C

157 W/m

0.00 mm

14:05

10.1 C

1020.9 hpa

73 %

12.9 km/h aus 117

20.9 km/h aus WSW

5.4 C

7.9 C

8.1 C

9.9 C

134 W/m

0.00 mm

14:10

10.2 C

1020.9 hpa

71 %

14.5 km/h aus 115

24.1 km/h aus WNW

5.2 C

7.8 C

8.0 C

10.0 C

153 W/m

0.00 mm

14:15

10.2 C

1020.8 hpa

69 %

16.1 km/h aus 114

25.7 km/h aus W

4.8 C

7.4 C

7.7 C

9.9 C

141 W/m

0.00 mm

14:20

10.2 C

1020.8 hpa

69 %

14.5 km/h aus 117

22.5 km/h aus WSW

4.8 C

7.7 C

8.0 C

9.9 C

74 W/m

0.00 mm

14:25

10.2 C

1020.8 hpa

70 %

12.9 km/h aus 117

20.9 km/h aus W

5.0 C

8.1 C

8.3 C

10.0 C

41 W/m

0.00 mm

14:30

10.1 C

1021.2 hpa

70 %

17.7 km/h aus 116

32.2 km/h aus W

4.9 C

7.0 C

7.2 C

9.9 C

27 W/m

0.00 mm

14:35

9.9 C

1021.2 hpa

74 %

19.3 km/h aus 116

30.6 km/h aus WNW

5.5 C

6.6 C

6.7 C

9.7 C

40 W/m

0.00 mm

14:40

9.7 C

1021.2 hpa

77 %

14.5 km/h aus 115

24.1 km/h aus W

5.8 C

7.2 C

7.3 C

9.6 C

71 W/m

0.00 mm

14:45

9.1 C

1021.4 hpa

80 %

12.9 km/h aus 117

24.1 km/h aus W

5.8 C

6.9 C

6.9 C

9.0 C

61 W/m

0.00 mm

14:50

8.6 C

1021.4 hpa

83 %

12.9 km/h aus 117

22.5 km/h aus WSW

5.9 C

6.3 C

6.4 C

8.6 C

77 W/m

0.00 mm

14:55

8.6 C

1021.4 hpa

85 %

9.7 km/h aus 116

16.1 km/h aus WSW

6.2 C

7.0 C

7.0 C

8.6 C

94 W/m

0.00 mm

15:00

8.7 C

1021.5 hpa

84 %

9.7 km/h aus 117

20.9 km/h aus W

6.1 C

7.1 C

7.1 C

8.7 C

93 W/m

0.00 mm

15:05

8.7 C

1021.5 hpa

84 %

8.0 km/h aus 114

16.1 km/h aus W

6.2 C

7.5 C

7.5 C

8.7 C

78 W/m

0.00 mm

15:10

8.8 C

1021.5 hpa

84 %

12.9 km/h aus 115

24.1 km/h aus WSW

6.2 C

6.6 C

6.6 C

8.8 C

60 W/m

0.00 mm

15:15

8.8 C

1021.4 hpa

83 %

11.3 km/h aus 117

24.1 km/h aus W

6.0 C

7.0 C

7.0 C

8.8 C

56 W/m

0.00 mm

15:20

8.8 C

1021.4 hpa

83 %

9.7 km/h aus 117

16.1 km/h aus SW

6.1 C

7.3 C

7.3 C

8.8 C

74 W/m

0.00 mm

15:25

8.8 C

1021.4 hpa

82 %

11.3 km/h aus 117

19.3 km/h aus W

5.9 C

7.0 C

7.1 C

8.8 C

68 W/m

0.00 mm

15:30

8.9 C

1021.4 hpa

82 %

12.9 km/h aus 116

20.9 km/h aus WSW

6.0 C

6.7 C

6.7 C

8.8 C

56 W/m

0.00 mm

15:35

8.9 C

1021.4 hpa

81 %

12.9 km/h aus 115

25.7 km/h aus WSW

5.8 C

6.7 C

6.7 C

8.8 C

50 W/m

0.00 mm

15:40

8.9 C

1021.4 hpa

81 %

8.0 km/h aus 115

19.3 km/h aus WSW

5.9 C

7.7 C

7.8 C

8.9 C

45 W/m

0.00 mm

15:45

8.9 C

1021.7 hpa

82 %

9.7 km/h aus 118

20.9 km/h aus WNW

6.0 C

7.4 C

7.4 C

8.9 C

58 W/m

0.00 mm

15:50

8.9 C

1021.7 hpa

82 %

9.7 km/h aus 116

19.3 km/h aus W

6.0 C

7.4 C

7.4 C

8.9 C

63 W/m

0.00 mm

15:55

8.9 C

1021.7 hpa

82 %

11.3 km/h aus 117

20.9 km/h aus WSW

6.0 C

7.1 C

7.1 C

8.8 C

59 W/m

0.00 mm

16:00

8.9 C

1021.7 hpa

82 %

9.7 km/h aus 116

17.7 km/h aus WSW

6.0 C

7.3 C

7.4 C

8.8 C

35 W/m

0.00 mm

16:05

8.8 C

1021.7 hpa

82 %

11.3 km/h aus 114

17.7 km/h aus WSW

5.9 C

7.0 C

7.1 C

8.8 C

23 W/m

0.00 mm

16:10

8.8 C

1021.7 hpa

81 %

11.3 km/h aus 116

17.7 km/h aus WSW

5.7 C

6.9 C

7.0 C

8.7 C

24 W/m

0.00 mm

16:15

8.8 C

1021.7 hpa

82 %

9.7 km/h aus 117

17.7 km/h aus W

5.9 C

7.2 C

7.3 C

8.7 C

19 W/m

0.00 mm

16:20

8.7 C

1021.7 hpa

82 %

11.3 km/h aus 117

19.3 km/h aus W

5.8 C

6.8 C

6.9 C

8.7 C

19 W/m

0.00 mm

16:25

8.7 C

1021.7 hpa

82 %

9.7 km/h aus 117

19.3 km/h aus W

5.8 C

7.1 C

7.2 C

8.7 C

16 W/m

0.00 mm

16:30

8.7 C

1021.7 hpa

82 %

9.7 km/h aus 114

16.1 km/h aus W

5.8 C

7.1 C

7.1 C

8.6 C

12 W/m

0.00 mm

16:35

8.7 C

1021.7 hpa

82 %

6.4 km/h aus 114

11.3 km/h aus SW

5.8 C

7.8 C

7.8 C

8.6 C

10 W/m

0.00 mm

16:40

8.7 C

1021.7 hpa

83 %

8.0 km/h aus 116

14.5 km/h aus W

5.9 C

7.4 C

7.4 C

8.6 C

7 W/m

0.00 mm

16:45

8.6 C

1021.7 hpa

83 %

8.0 km/h aus 117

16.1 km/h aus WSW

5.8 C

7.3 C

7.3 C

8.5 C

6 W/m

0.00 mm

16:50

8.5 C

1021.7 hpa

83 %

8.0 km/h aus 116

17.7 km/h aus SW

5.8 C

7.2 C

7.3 C

8.4 C

1 W/m

0.00 mm

16:55

8.5 C

1021.7 hpa

83 %

9.7 km/h aus 117

17.7 km/h aus W

5.8 C

6.9 C

6.9 C

8.4 C

0 W/m

0.00 mm

17:00

8.4 C

1021.8 hpa

84 %

8.0 km/h aus 113

16.1 km/h aus W

5.9 C

7.2 C

7.2 C

8.4 C

0 W/m

0.00 mm

17:05

8.4 C

1021.8 hpa

84 %

9.7 km/h aus 114

19.3 km/h aus WNW

5.9 C

6.8 C

6.8 C

8.4 C

0 W/m

0.00 mm

17:10

8.4 C

1021.8 hpa

84 %

9.7 km/h aus 117

17.7 km/h aus WNW

5.8 C

6.8 C

6.8 C

8.4 C

0 W/m

0.00 mm

17:15

8.3 C

1022.2 hpa

84 %

11.3 km/h aus 117

19.3 km/h aus W

5.8 C

6.4 C

6.4 C

8.3 C

0 W/m

0.00 mm

17:20

8.3 C

1022.2 hpa

84 %

12.9 km/h aus 115

19.3 km/h aus WSW

5.7 C

6.0 C

6.0 C

8.3 C

0 W/m

0.00 mm

17:25

8.2 C

1022.2 hpa

84 %

11.3 km/h aus 116

20.9 km/h aus W

5.7 C

6.3 C

6.3 C

8.2 C

0 W/m

0.25 mm

17:30

8.2 C

1022.3 hpa

84 %

8.0 km/h aus 113

17.7 km/h aus W

5.6 C

6.8 C

6.8 C

8.2 C

0 W/m

0.00 mm

17:35

8.1 C

1022.3 hpa

84 %

8.0 km/h aus 116

14.5 km/h aus W

5.6 C

6.8 C

6.8 C

8.1 C

0 W/m

0.00 mm

17:40

8.1 C

1022.3 hpa

85 %

8.0 km/h aus 117

14.5 km/h aus W

5.7 C

6.8 C

6.8 C

8.1 C

0 W/m

0.00 mm

17:45

8.1 C

1022.4 hpa

85 %

6.4 km/h aus 117

12.9 km/h aus W

5.7 C

7.2 C

7.2 C

8.1 C

0 W/m

0.00 mm

17:50

8.1 C

1022.4 hpa

85 %

8.0 km/h aus 116

14.5 km/h aus W

5.7 C

6.7 C

6.7 C

8.1 C

0 W/m

0.00 mm

17:55

8.0 C

1022.4 hpa

85 %

9.7 km/h aus 117

19.3 km/h aus W

5.6 C

6.3 C

6.3 C

8.0 C

0 W/m

0.00 mm

18:00

8.0 C

1022.4 hpa

85 %

9.7 km/h aus 115

16.1 km/h aus WSW

5.6 C

6.3 C

6.3 C

8.0 C

0 W/m

0.00 mm

18:05

7.9 C

1022.4 hpa

85 %

8.0 km/h aus 115

14.5 km/h aus W

5.6 C

6.6 C

6.6 C

7.9 C

0 W/m

0.00 mm

18:10

7.9 C

1022.4 hpa

85 %

8.0 km/h aus 117

16.1 km/h aus WSW

5.6 C

6.6 C

6.6 C

7.9 C

0 W/m

0.00 mm

18:15

7.9 C

1022.6 hpa

85 %

9.7 km/h aus 117

17.7 km/h aus WSW

5.6 C

6.3 C

6.3 C

7.9 C

0 W/m

0.00 mm

18:20

7.9 C

1022.6 hpa

85 %

6.4 km/h aus 117

16.1 km/h aus W

5.5 C

6.9 C

6.9 C

7.9 C

0 W/m

0.00 mm

18:25

7.9 C

1022.6 hpa

86 %

4.8 km/h aus 116

11.3 km/h aus SW

5.7 C

7.5 C

7.5 C

7.9 C

0 W/m

0.00 mm

18:30

7.9 C

1022.8 hpa

86 %

8.0 km/h aus 114

20.9 km/h aus WSW

5.7 C

6.5 C

6.5 C

7.9 C

0 W/m

0.00 mm

18:35

7.9 C

1022.8 hpa

86 %

6.4 km/h aus 115

16.1 km/h aus WSW

5.7 C

6.9 C

6.9 C

7.9 C

0 W/m

0.00 mm

18:40

7.9 C

1022.8 hpa

86 %

6.4 km/h aus 117

11.3 km/h aus WSW

5.7 C

6.9 C

6.9 C

7.9 C

0 W/m

0.00 mm

18:45

7.8 C

1022.9 hpa

86 %

6.4 km/h aus 117

9.7 km/h aus WSW

5.6 C

6.8 C

6.8 C

7.8 C

0 W/m

0.00 mm

18:50

7.8 C

1022.9 hpa

87 %

6.4 km/h aus 117

14.5 km/h aus WSW

5.8 C

6.8 C

6.8 C

7.8 C

0 W/m

0.00 mm

18:55

7.8 C

1022.9 hpa

87 %

8.0 km/h aus 116

14.5 km/h aus WSW

5.8 C

6.4 C

6.4 C

7.8 C

0 W/m

0.00 mm

19:00

7.8 C

1022.8 hpa

87 %

9.7 km/h aus 115

17.7 km/h aus SW

5.8 C

6.1 C

6.1 C

7.8 C

0 W/m

0.00 mm

19:05

7.8 C

1022.8 hpa

88 %

9.7 km/h aus 116

17.7 km/h aus WSW

6.0 C

6.2 C

6.1 C

7.9 C

0 W/m

0.00 mm

19:10

7.8 C

1022.8 hpa

88 %

8.0 km/h aus 117

17.7 km/h aus W

5.9 C

6.4 C

6.4 C

7.8 C

0 W/m

0.00 mm

19:15

7.8 C

1022.8 hpa

88 %

8.0 km/h aus 117

16.1 km/h aus WSW

5.9 C

6.4 C

6.4 C

7.8 C

0 W/m

0.00 mm

19:20

7.7 C

1022.8 hpa

88 %

8.0 km/h aus 117

16.1 km/h aus WSW

5.9 C

6.4 C

6.3 C

7.8 C

0 W/m

0.00 mm

19:25

7.7 C

1022.8 hpa

88 %

6.4 km/h aus 116

11.3 km/h aus W

5.9 C

6.8 C

6.7 C

7.8 C

0 W/m

0.00 mm

19:30

7.7 C

1022.8 hpa

88 %

6.4 km/h aus 113

14.5 km/h aus WSW

5.8 C

6.7 C

6.7 C

7.7 C

0 W/m

0.00 mm

19:35

7.7 C

1022.8 hpa

88 %

6.4 km/h aus 116

11.3 km/h aus WSW

5.8 C

6.7 C

6.7 C

7.7 C

0 W/m

0.00 mm

19:40

7.7 C

1022.8 hpa

89 %

6.4 km/h aus 115

12.9 km/h aus SW

6.0 C

6.7 C

6.7 C

7.7 C

0 W/m

0.00 mm

19:45

7.7 C

1023.0 hpa

89 %

4.8 km/h aus 116

9.7 km/h aus W

6.0 C

7.3 C

7.2 C

7.7 C

0 W/m

0.00 mm

19:50

7.7 C

1023.0 hpa

89 %

4.8 km/h aus 117

11.3 km/h aus WSW

6.0 C

7.3 C

7.2 C

7.7 C

0 W/m

0.00 mm

19:55

7.6 C

1023.0 hpa

89 %

8.0 km/h aus 117

16.1 km/h aus WSW

5.9 C

6.2 C

6.2 C

7.7 C

0 W/m

0.00 mm

20:00

7.6 C

1023.0 hpa

89 %

6.4 km/h aus 113

16.1 km/h aus W

5.9 C

6.7 C

6.6 C

7.7 C

0 W/m

0.00 mm

20:05

7.6 C

1023.0 hpa

89 %

6.4 km/h aus 116

12.9 km/h aus WSW

5.9 C

6.6 C

6.6 C

7.6 C

0 W/m

0.00 mm

20:10

7.5 C

1023.0 hpa

89 %

6.4 km/h aus 116

11.3 km/h aus WSW

5.8 C

6.6 C

6.5 C

7.6 C

0 W/m

0.00 mm

20:15

7.5 C

1023.0 hpa

89 %

6.4 km/h aus 117

14.5 km/h aus W

5.8 C

6.6 C

6.5 C

7.6 C

0 W/m

0.00 mm

20:20

7.4 C

1023.0 hpa

89 %

4.8 km/h aus 117

14.5 km/h aus WSW

5.7 C

7.0 C

6.9 C

7.5 C

0 W/m

0.00 mm

20:25

7.4 C

1023.0 hpa

89 %

6.4 km/h aus 117

11.3 km/h aus W

5.7 C

6.4 C

6.4 C

7.5 C

0 W/m

0.00 mm

20:30

7.4 C

1023.2 hpa

89 %

8.0 km/h aus 114

16.1 km/h aus W

5.7 C

6.1 C

6.0 C

7.5 C

0 W/m

0.00 mm

20:35

7.4 C

1023.2 hpa

89 %

6.4 km/h aus 115

17.7 km/h aus WSW

5.7 C

6.4 C

6.4 C

7.5 C

0 W/m

0.00 mm

20:40

7.4 C

1023.2 hpa

89 %

8.0 km/h aus 117

17.7 km/h aus WSW

5.7 C

6.0 C

5.9 C

7.4 C

0 W/m

0.00 mm

20:45

7.3 C

1023.3 hpa

89 %

8.0 km/h aus 116

16.1 km/h aus WSW

5.6 C

5.9 C

5.8 C

7.4 C

0 W/m

0.00 mm

20:50

7.3 C

1023.3 hpa

89 %

8.0 km/h aus 117

14.5 km/h aus WSW

5.6 C

5.9 C

5.8 C

7.4 C

0 W/m

0.00 mm

20:55

7.3 C

1023.3 hpa

89 %

6.4 km/h aus 117

11.3 km/h aus WSW

5.6 C

6.3 C

6.2 C

7.3 C

0 W/m

0.00 mm

21:00

7.2 C

1023.3 hpa

89 %

6.4 km/h aus 114

16.1 km/h aus WSW

5.5 C

6.2 C

6.2 C

7.3 C

0 W/m

0.00 mm

21:05

7.2 C

1023.3 hpa

89 %

8.0 km/h aus 115

17.7 km/h aus SW

5.5 C

5.8 C

5.7 C

7.3 C

0 W/m

0.00 mm

21:10

7.2 C

1023.3 hpa

89 %

3.2 km/h aus 117

8.0 km/h aus WSW

5.5 C

7.2 C

7.2 C

7.2 C

0 W/m

0.00 mm

21:15

7.1 C

1023.3 hpa

88 %

6.4 km/h aus 117

11.3 km/h aus WSW

5.3 C

6.1 C

6.1 C

7.1 C

0 W/m

0.00 mm

21:20

7.1 C

1023.3 hpa

88 %

8.0 km/h aus 117

16.1 km/h aus SW

5.3 C

5.6 C

5.6 C

7.1 C

0 W/m

0.00 mm

21:25

7.1 C

1023.3 hpa

88 %

8.0 km/h aus 117

16.1 km/h aus WSW

5.2 C

5.6 C

5.6 C

7.1 C

0 W/m

0.00 mm

21:30

7.0 C

1023.3 hpa

88 %

11.3 km/h aus 114

17.7 km/h aus WSW

5.1 C

4.8 C

4.8 C

7.0 C

0 W/m

0.00 mm

21:35

7.0 C

1023.3 hpa

89 %

8.0 km/h aus 115

16.1 km/h aus W

5.3 C

5.6 C

5.5 C

7.1 C

0 W/m

0.00 mm

21:40

6.9 C

1023.3 hpa

89 %

11.3 km/h aus 117

22.5 km/h aus WSW

5.3 C

4.8 C

4.8 C

7.0 C

0 W/m

0.00 mm

21:45

6.9 C

1023.4 hpa

89 %

9.7 km/h aus 117

20.9 km/h aus W

5.3 C

5.1 C

5.1 C

7.0 C

0 W/m

0.00 mm

21:50

6.9 C

1023.4 hpa

89 %

8.0 km/h aus 117

16.1 km/h aus WSW

5.3 C

5.5 C

5.4 C

7.0 C

0 W/m

0.00 mm

21:55

6.9 C

1023.4 hpa

89 %

8.0 km/h aus 117

12.9 km/h aus WSW

5.3 C

5.5 C

5.4 C

7.0 C

0 W/m

0.00 mm

22:00

6.9 C

1023.4 hpa

89 %

9.7 km/h aus 116

20.9 km/h aus WSW

5.3 C

5.1 C

5.1 C

7.0 C

0 W/m

0.00 mm

22:05

6.9 C

1023.4 hpa

88 %

6.4 km/h aus 113

14.5 km/h aus WSW

5.1 C

5.8 C

5.8 C

6.9 C

0 W/m

0.00 mm

22:10

6.9 C

1023.4 hpa

88 %

8.0 km/h aus 116

12.9 km/h aus WSW

5.1 C

5.4 C

5.4 C

6.9 C

0 W/m

0.00 mm

22:15

6.9 C

1023.4 hpa

88 %

9.7 km/h aus 115

16.1 km/h aus WSW

5.0 C

5.0 C

5.0 C

6.9 C

0 W/m

0.00 mm

22:20

6.8 C

1023.4 hpa

88 %

8.0 km/h aus 117

16.1 km/h aus W

5.0 C

5.3 C

5.3 C

6.8 C

0 W/m

0.00 mm

22:25

6.8 C

1023.4 hpa

88 %

6.4 km/h aus 117

12.9 km/h aus W

5.0 C

5.7 C

5.7 C

6.8 C

0 W/m

0.00 mm

22:30

6.8 C

1023.4 hpa

88 %

6.4 km/h aus 116

14.5 km/h aus WSW

5.0 C

5.7 C

5.7 C

6.8 C

0 W/m

0.00 mm

22:35

6.8 C

1023.4 hpa

88 %

8.0 km/h aus 113

17.7 km/h aus W

4.9 C

5.2 C

5.2 C

6.8 C

0 W/m

0.00 mm

22:40

6.8 C

1023.4 hpa

88 %

9.7 km/h aus 116

20.9 km/h aus WSW

4.9 C

4.8 C

4.8 C

6.8 C

0 W/m

0.00 mm

22:45

6.8 C

1023.4 hpa

87 %

9.7 km/h aus 115

16.1 km/h aus W

4.8 C

4.8 C

4.8 C

6.8 C

0 W/m

0.00 mm

22:50

6.8 C

1023.4 hpa

87 %

9.7 km/h aus 117

16.1 km/h aus WNW

4.8 C

4.8 C

4.8 C

6.8 C

0 W/m

0.00 mm

22:55

6.7 C

1023.4 hpa

87 %

9.7 km/h aus 115

17.7 km/h aus WSW

4.7 C

4.8 C

4.8 C

6.7 C

0 W/m

0.00 mm

23:00

6.7 C

1023.3 hpa

87 %

11.3 km/h aus 116

19.3 km/h aus WSW

4.7 C

4.5 C

4.5 C

6.7 C

0 W/m

0.00 mm

23:05

6.7 C

1023.3 hpa

87 %

8.0 km/h aus 113

16.1 km/h aus WSW

4.7 C

5.1 C

5.1 C

6.7 C

0 W/m

0.00 mm

23:10

6.6 C

1023.3 hpa

87 %

6.4 km/h aus 116

16.1 km/h aus SW

4.6 C

5.4 C

5.4 C

6.6 C

0 W/m

0.00 mm

23:15

6.6 C

1023.4 hpa

87 %

4.8 km/h aus 118

9.7 km/h aus SW

4.5 C

5.9 C

5.9 C

6.6 C

0 W/m

0.00 mm

23:20

6.5 C

1023.4 hpa

87 %

4.8 km/h aus 116

9.7 km/h aus SW

4.5 C

5.9 C

5.9 C

6.5 C

0 W/m

0.00 mm

23:25

6.4 C

1023.4 hpa

86 %

4.8 km/h aus 117

8.0 km/h aus WSW

4.3 C

5.8 C

5.8 C

6.4 C

0 W/m

0.00 mm

23:30

6.4 C

1023.4 hpa

87 %

3.2 km/h aus 116

8.0 km/h aus SW

4.4 C

6.4 C

6.4 C

6.4 C

0 W/m

0.00 mm

23:35

6.3 C

1023.4 hpa

86 %

4.8 km/h aus 113

11.3 km/h aus WSW

4.2 C

5.6 C

5.7 C

6.3 C

0 W/m

0.00 mm

23:40

6.3 C

1023.4 hpa

86 %

4.8 km/h aus 113

8.0 km/h aus SW

4.1 C

5.6 C

5.6 C

6.2 C

0 W/m

0.00 mm

23:45

6.2 C

1023.4 hpa

86 %

4.8 km/h aus 117

9.7 km/h aus WSW

4.0 C

5.4 C

5.5 C

6.1 C

0 W/m

0.00 mm

23:50

6.1 C

1023.4 hpa

86 %

4.8 km/h aus 117

9.7 km/h aus SW

3.9 C

5.3 C

5.4 C

6.0 C

0 W/m

0.00 mm

23:55

6.0 C

1023.4 hpa

87 %

4.8 km/h aus 117

9.7 km/h aus WSW

4.0 C

5.3 C

5.3 C

5.9 C

0 W/m

0.00 mm